Location: Caltech
(34.1382°N, 118.1253°W)
Time: 15:36:44
(UTC-07:00)

Cosmos 1937 Rocket - Visible Passes

Search period start: 01 July 2016 00:00
Search period end: 11 July 2016 00:00
Orbit: 748 x 780 km, 74.0° (Epoch: 01 July)

Date Brightness Start Highest point End Pass type
(mag) Time Alt. Az. Time Alt. Az. Time Alt. Az.
01 Jul 4.1 21:05:22 10° SSE 21:10:05 35° E 21:14:47 10° NE visible
01 Jul 5.7 22:48:00 10° WSW 22:52:04 23° WNW 22:56:09 10° NNW visible
02 Jul 4.7 22:08:44 10° SW 22:13:38 40° WNW 22:18:32 10° N visible
03 Jul 3.7 21:30:05 10° SSW 21:35:19 76° WNW 21:40:31 10° NNE visible
04 Jul 3.6 20:51:59 10° S 20:57:06 58° ESE 21:02:11 10° NNE visible
04 Jul 6.3 22:36:35 10° W 22:39:25 15° WNW 22:42:15 10° NNW visible
05 Jul 5.7 21:56:34 10° WSW 22:00:53 26° WNW 22:05:11 10° N visible
06 Jul 4.6 21:17:28 10° SW 21:22:28 46° WNW 21:27:28 10° N visible
07 Jul 3.6 20:38:57 10° SSW 20:44:10 87° WNW 20:49:23 10° NNE visible
08 Jul 6.4 21:44:55 10° WSW 21:48:12 17° WNW 21:51:28 10° NNW visible
09 Jul 5.7 21:05:10 10° SW 21:09:41 29° WNW 21:14:12 10° N visible
